Flag for Finland Weather past 2 weeks in Kotka, Finland

Now
43 °F

Passing clouds.


Feels Like: 39 °F
Forecast: 44 / 54 °F
Wind: 6 mph from South

Location: Utti

Current Time: May 23, 2015 at 5:47:24 AM

Latest Report: May 23, 2015 at 4:50 AM


Visibility: N/A

Pressure: 29.89 "Hg

Humidity: 87%

Dew point: 39 °F

Location of KotkaLocation

Historic Weather in Kotka — Graph

°F

Kotka temperature yesterday

Maximum temperature yesterday: 63 °F (at 3:50 PM)
Minimum temperature yesterday: 39 °F (at 5:20 AM)
Average temperature yesterday: 53 °F

Past Weeks' High & Low Weather Summary

 TemperatureHumidityPressure
High63 °F (May 20, 3:20 PM)100% (May 8, 4:20 AM)30.15 "Hg (May 8, 4:20 AM)
Low34 °F (May 10, 4:20 AM)31% (May 10, 3:20 PM)29.27 "Hg (May 13, 10:20 PM)
Average47 °F78%29.79 "Hg
* Reported May 8 4:20 AM — May 23 4:20 AM, Kotka, Weather by CustomWeather, © 2015

Note: Actual official high and low records may vary slightly from our data, if they occured in-between our weather recording intervals... More about our weather records

Advertising

Kotka weather history for previous 24 hours

 ConditionsComfort  
Time TempWeatherWind HumidityBarometerVisibility
4:20 AM
Sat, May 23
41 °FClear.6 mph93%29.92 "Hg10 mi
3:50 AM43 °FClear.6 mph93%29.92 "Hg10 mi
3:20 AM43 °FPassing clouds.6 mph93%29.92 "HgN/A
2:50 AM43 °FClear.6 mph87%29.95 "Hg10 mi
2:20 AM43 °FPassing clouds.5 mph87%29.95 "HgN/A
1:50 AM43 °FClear.3 mph87%29.98 "Hg10 mi
1:20 AM45 °FClear.3 mph81%29.98 "Hg10 mi
12:50 AM45 °FClear.3 mph87%29.98 "Hg10 mi
11:50 PM
Fri, May 22
46 °FPassing clouds.5 mph82%29.98 "HgN/A
11:20 PM48 °FPassing clouds.6 mph76%30.01 "HgN/A
10:50 PM50 °FPassing clouds.6 mph76%30.01 "HgN/A
10:20 PM52 °FSunny.7 mph72%30.01 "Hg10 mi
9:50 PM54 °FSunny.9 mph67%30.01 "Hg10 mi
9:20 PM54 °FPassing clouds.8 mph67%30.01 "HgN/A
8:50 PM57 °FPassing clouds.12 mph55%30.01 "HgN/A
8:20 PM57 °FPassing clouds.12 mph55%30.01 "HgN/A
7:50 PM59 °FPassing clouds.12 mph48%30.01 "HgN/A
7:20 PM61 °FPassing clouds.16 mph39%30.01 "HgN/A
6:50 PM61 °FPassing clouds.15 mph42%30.01 "HgN/A
6:20 PM63 °FSunny.14 mph37%30.04 "Hg10 mi
5:50 PM63 °FPassing clouds.17 mph37%30.04 "HgN/A
5:20 PM63 °FPassing clouds.14 mph37%30.04 "HgN/A
4:50 PM63 °FPassing clouds.14 mph37%30.04 "HgN/A
4:20 PM63 °FPassing clouds.14 mph45%30.07 "HgN/A
3:50 PM63 °FPassing clouds.17 mph42%30.07 "HgN/A
3:20 PM61 °FPassing clouds.15 mph45%30.07 "HgN/A
2:50 PM61 °FScattered clouds.15 mph45%30.07 "HgN/A
2:20 PM61 °FBroken clouds.14 mph45%30.07 "HgN/A
1:50 PM61 °FPartly sunny.12 mph48%30.07 "HgN/A
1:20 PM61 °FScattered clouds.12 mph48%30.07 "HgN/A
12:50 PM61 °FScattered clouds.10 mph48%30.09 "HgN/A
12:20 PM61 °FScattered clouds.12 mph45%30.09 "HgN/A
11:50 AM57 °FScattered clouds.10 mph59%30.09 "HgN/A
11:20 AM59 °FPassing clouds.10 mph51%30.09 "HgN/A
10:50 AM55 °FPassing clouds.9 mph67%30.12 "HgN/A
10:20 AM55 °FPassing clouds.8 mph72%30.12 "HgN/A
9:50 AM54 °FPassing clouds.7 mph72%30.12 "HgN/A
9:20 AM50 °FPassing clouds.6 mph88%30.12 "HgN/A
8:50 AM45 °FFog.3 mph100%30.09 "Hg2 mi
8:20 AM43 °FPartly sunny.5 mph100%30.09 "Hg1 mi
7:50 AM43 °FPartly sunny.3 mph100%30.09 "Hg0 mi
7:20 AM43 °FPartly sunny.3 mph100%30.09 "Hg0 mi
6:50 AM41 °FScattered clouds.2 mph100%30.09 "Hg1 mi
6:20 AM41 °FPartly sunny.3 mph100%30.09 "Hg0 mi
5:56 AM41 °FScattered clouds.1 mph100%30.07 "Hg0 mi
5:20 AM39 °FFog.1 mph100%30.07 "Hg0 mi
Weather by CustomWeather, © 2015

See weather overviewHow to use our weather pages